Flag for France Weather past 2 weeks in Royan, France

Now
72 °F

Clear.


Feels Like: 75 °F
Forecast: 67 / 72 °F
Wind: 3 mph from West

Location: Cognac Airport

Current Time: Aug 27, 2014 at 9:38:10 PM

Latest Report: Aug 27, 2014 at 9:00 PM


Visibility: N/A

Pressure: 30.01 "Hg

Humidity: 69%

Dew point: 61 °F

Location of RoyanLocation

Historic Weather in Royan — Graph

°F

Royan temperature yesterday

Maximum temperature yesterday: 73 °F (at 12:30 PM)
Minimum temperature yesterday: 64 °F (at 7:30 AM)
Average temperature yesterday: 69 °F

Past Weeks' High & Low Weather Summary

 TemperatureHumidityPressure
High79 °F (Aug 25, 4:00 PM)100% (Aug 15, 7:00 AM)30.27 "Hg (Aug 15, 7:00 AM)
Low46 °F (Aug 21, 7:00 AM)36% (Aug 21, 3:00 PM)29.71 "Hg (Aug 13, 2:30 AM)
Average64 °F70%30.04 "Hg
* Reported Aug 12 8:00 PM — Aug 27 8:00 PM, Royan, Weather by CustomWeather, © 2014

Note: Actual official high and low records may vary slightly from our data, if they occured in-between our weather recording intervals... More about our weather records

Advertising

Royan weather history for previous 24 hours

 ConditionsComfort  
Time TempWeatherWind HumidityBarometerVisibility
8:00 PM
Aug 27
73 °FClear.6 mph65%30.01 "HgN/A
7:30 PM75 °FClear.7 mph61%29.98 "HgN/A
7:00 PM75 °FClear.8 mph57%29.98 "HgN/A
6:30 PM75 °FScattered clouds.8 mph57%29.98 "HgN/A
6:00 PM77 °FPartly sunny.7 mph54%30.01 "HgN/A
4:30 PM77 °FMostly cloudy.10 mph54%30.01 "HgN/A
4:00 PM75 °FBroken clouds.9 mph54%30.01 "HgN/A
3:30 PM75 °FBroken clouds.10 mph54%30.01 "HgN/A
3:00 PM75 °FCloudy.10 mph54%30.01 "HgN/A
2:30 PM75 °FPartly sunny.12 mph54%30.01 "HgN/A
2:00 PM75 °FBroken clouds.12 mph57%30.01 "HgN/A
1:30 PM75 °FBroken clouds.9 mph57%30.01 "HgN/A
1:00 PM73 °FBroken clouds.7 mph57%30.01 "HgN/A
12:30 PM72 °FMostly cloudy.8 mph65%30.04 "HgN/A
12:00 PM70 °FBroken clouds.6 mph73%30.04 "HgN/A
11:30 AM70 °FPartly sunny.6 mph73%30.04 "HgN/A
11:00 AM68 °FOvercast.8 mph78%30.01 "HgN/A
10:30 AM68 °FOvercast.8 mph78%30.01 "HgN/A
10:00 AM66 °FMostly cloudy.9 mph83%30.01 "HgN/A
9:30 AM66 °FMore clouds than sun.6 mph83%30.01 "HgN/A
9:00 AM64 °FOvercast.5 mph88%30.01 "HgN/A
8:30 AM63 °FClear.2 mph94%30.01 "HgN/A
8:00 AM63 °FClear.5 mph94%30.01 "HgN/A
7:30 AM63 °FClear.3 mph94%29.98 "HgN/A
7:00 AM63 °FClear.5 mph88%29.98 "HgN/A
6:30 AM63 °FClear.N/A88%29.98 "HgN/A
6:00 AM63 °FClear.5 mph94%29.98 "HgN/A
5:30 AM63 °FPartly cloudy.6 mph94%29.98 "HgN/A
5:00 AM63 °FPassing clouds.7 mph88%29.98 "HgN/A
4:30 AM64 °FPassing clouds.7 mph88%29.98 "HgN/A
4:00 AM63 °FClear.6 mph94%29.98 "HgN/A
3:30 AM64 °FClear.6 mph88%29.98 "HgN/A
3:00 AM64 °FClear.6 mph88%29.98 "HgN/A
2:30 AM64 °FOvercast.7 mph88%29.98 "HgN/A
2:00 AM64 °FOvercast.7 mph88%29.98 "HgN/A
1:30 AM63 °FPassing clouds.6 mph94%29.95 "HgN/A
1:00 AM64 °FPassing clouds.6 mph88%29.95 "HgN/A
12:30 AM64 °FPartly cloudy.6 mph88%29.95 "HgN/A
12:00 AM64 °FPassing clouds.6 mph88%29.95 "HgN/A
11:30 PM
Aug 26
64 °FPartly cloudy.5 mph88%29.95 "HgN/A
11:00 PM64 °FPassing clouds.6 mph94%29.95 "HgN/A
10:30 PM66 °FPassing clouds.8 mph83%29.92 "HgN/A
10:00 PM64 °FPassing clouds.7 mph88%29.92 "HgN/A
9:30 PM64 °FPartly sunny.7 mph88%29.92 "HgN/A
9:00 PM66 °FScattered clouds.8 mph83%29.92 "HgN/A
Weather by CustomWeather, © 2014

See weather overviewHow to use our weather pages